Location: Владивосток
(43.1151°N, 131.8856°E)
Time: 23:07:49
(UTC+10:00)

EO-88 - Pass Details

Date: 05 July 2022
Orbit: 453 x 461 km, 97.3° (Epoch: 17 August)

Event Time Altitude Azimuth Distance (km) Brightness Sun altitude
Exits shadow 21:58:52 14° 123° (ESE) 1,400 ? -9.9°
Maximum altitude 22:01:11 27° 71° (ENE) 941 ? -10.2°
Drops below altitude 10° 22:04:11 10° 12° (NNE) 1,631 ? -10.6°
Sets 22:06:26 0° 360° (N) 2,510 ? -10.9°
